Sioux City, IA

3:36 AM CDT on October 23, 2019 (GMT -0500)
Sioux Gateway

Weather History for KSUX - September, 2019

Change the Weather History Date:

Friday, September 20, 2019

  Actual Average Record
Temperature  
Mean Temperature 76 °F 62 °F  
Max Temperature 84 °F 75 °F 94 °F (2005)
Min Temperature 68 °F 49 °F 29 °F (1918)
Degree Days  
Heating Degree Days 0 5  
Month to date heating degree days 0 61  
Since 1 July heating degree days 5 76  
Cooling Degree Days 12 2  
Month to date cooling degree days 143 70  
Year to date cooling degree days 881 847  
Growing Degree Days 26 (Base 50)    
Moisture  
Dew Point 69 °F    
Average Humidity 80    
Maximum Humidity 100    
Minimum Humidity 58    
Precipitation  
Precipitation 0.00 in 0.10 in 2.70 in (1902)
Month to date precipitation 3.86 2.01  
Year to date precipitation 27.95 22.55  
Snow  
Snow 0.00 in 0.00 in 0.00 in ()
Month to date snowfall 0.0 0.0  
Since 1 July snowfall 0.0 0.0  
Since 1 September snowfall 0.0 0.0  
Snow Depth 0.00 in    
Sea Level Pressure  
Sea Level Pressure 29.90 in    
Wind  
Wind Speed 11 mph ()    
Max Wind Speed 28 mph    
Max Gust Speed 40 mph    
Visibility 9.4 miles    
Events      
T = Trace of Precipitation, MM = Missing Value Source: Averaged Metar Reports

Daily Weather History Graph

Daily Weather History Graph

Search for Another Location

Airport or City:

Astronomy

Sep. 20, 2019 Rise Set
Actual Time 7:10 AM CDT 7:26 PM CDT
Civil Twilight 6:42 AM CDT 7:54 PM CDT
Nautical Twilight 6:09 AM CDT 8:27 PM CDT
Astronomical Twilight 5:35 AM CDT 9:01 PM CDT
Moon 11:10 PM CDT (9/20) 1:23 PM CDT (9/20)
Length of Visible Light 13h 12m
Length of Day
12h 16m
Waning Gibbous, 65% of the Moon is Illuminated
Sep 20
Waning Gibbous
Sep 21
Last Quarter
Sep 28
New
Oct 5
First Quarter
Oct 13
Full

Hourly Weather History & Observations

Time (CDT) Temp. Heat Index Dew Point Humidity Pressure Visibility Wind Dir Wind Speed Gust Speed Precip Events Conditions
12:52 AM 71.1 °F - 69.1 °F 93% 29.94 in 10.0 mi ESE 9.2 mph - N/A   Clear
1:52 AM 71.1 °F - 69.1 °F 93% 29.95 in 10.0 mi SE 11.5 mph - N/A   Clear
2:52 AM 70.0 °F - 69.1 °F 97% 29.94 in 10.0 mi SE 8.1 mph - N/A   Clear
3:52 AM 70.0 °F - 69.1 °F 97% 29.94 in 10.0 mi SE 8.1 mph - N/A   Clear
4:52 AM 69.1 °F - 69.1 °F 100% 29.94 in 8.0 mi SE 6.9 mph - N/A   Clear
5:52 AM 69.1 °F - 68.0 °F 96% 29.93 in 7.0 mi ESE 6.9 mph - N/A   Clear
6:52 AM 69.1 °F - 68.0 °F 96% 29.94 in 7.0 mi SE 6.9 mph - N/A   Clear
7:52 AM 70.0 °F - 69.1 °F 97% 29.96 in 6.0 mi SE 10.4 mph - N/A   Clear
8:52 AM 71.1 °F - 70.0 °F 96% 29.97 in 8.0 mi SE 10.4 mph - N/A   Clear
9:52 AM 75.9 °F - 71.1 °F 85% 29.96 in 10.0 mi SE 12.7 mph - N/A   Clear
10:52 AM 78.1 °F - 71.1 °F 79% 29.96 in 10.0 mi SSE 11.5 mph - N/A   Clear
11:52 AM 82.0 °F 85.9 °F 70.0 °F 67% 29.94 in 10.0 mi South 15.0 mph 23.0 mph N/A   Clear
12:52 PM 82.9 °F 87.0 °F 70.0 °F 65% 29.92 in 10.0 mi SSE 16.1 mph 24.2 mph N/A   Clear
1:52 PM 84.0 °F 88.4 °F 70.0 °F 63% 29.90 in 10.0 mi SSE 21.9 mph 29.9 mph N/A   Scattered Clouds
2:52 PM 84.0 °F 88.4 °F 70.0 °F 63% 29.88 in 10.0 mi South 19.6 mph 25.3 mph N/A   Partly Cloudy
3:52 PM 84.0 °F 88.4 °F 70.0 °F 63% 29.85 in 10.0 mi South 17.3 mph 28.8 mph N/A   Clear
4:52 PM 84.0 °F 87.0 °F 68.0 °F 58% 29.85 in 10.0 mi South 25.3 mph 35.7 mph N/A   Partly Cloudy
5:52 PM 82.9 °F 85.4 °F 66.9 °F 58% 29.84 in 10.0 mi SSE 23.0 mph 31.1 mph N/A   Partly Cloudy
6:52 PM 80.1 °F 82.1 °F 66.0 °F 62% 29.83 in 10.0 mi SSE 12.7 mph - N/A   Clear
7:52 PM 78.1 °F - 66.9 °F 68% 29.84 in 10.0 mi SSE 10.4 mph - N/A   Scattered Clouds
8:52 PM 75.9 °F - 68.0 °F 76% 29.85 in 10.0 mi SSE 12.7 mph - N/A   Clear
9:52 PM 73.9 °F - 66.0 °F 76% 29.83 in 10.0 mi SSE 16.1 mph 26.5 mph N/A   Clear
10:52 PM 73.0 °F - 66.9 °F 81% 29.85 in 10.0 mi SSE 12.7 mph 24.2 mph N/A   Partly Cloudy
11:04 PM 73.0 °F - 66.9 °F 81% 29.87 in 10.0 mi SSE 18.4 mph 31.1 mph N/A   Mostly Cloudy
11:52 PM 73.0 °F - 66.9 °F 81% 29.83 in 10.0 mi South 16.1 mph 25.3 mph N/A   Overcast